FW6622 Weather Reports


time (UTC)temp
F
wind
direction
speed
knots
gust
knots
rain 1hr
in
rain 24hr
in
rain mn
in
humidity
%
barometer
mb
20260510164547 55 125 0.9 5.2 0.01 0.10 0.10 79 1026.3
20260510163044 54 0 0.0 2.6 0.01 0.10 0.10 79 1025.6
20260510161551 53 114 0.9 3.5 0.01 0.10 0.10 78 1025.9
20260510160041 53 349 1.7 5.2 0.01 0.10 0.10 80 1025.8
20260510154546 53 154 0.9 7.0 0.01 0.09 0.09 79 1025.8
20260510153047 54 200 1.7 7.0 0.01 0.09 0.09 78 1026.0
20260510151548 54 308 2.6 8.7 0.01 0.09 0.09 78 1026.0
20260510150047 55 205 1.7 7.0 0.01 0.09 0.09 78 1025.9
20260510144543 54 121 0.9 4.3 0.00 0.08 0.08 80 1025.7
20260510143043 54 0 1.7 7.0 0.01 0.08 0.08 80 1025.6
20260510141540 54 133 1.7 7.8 0.03 0.08 0.08 81 1025.7
20260510140042 54 249 1.7 7.8 0.04 0.08 0.08 84 1025.6
20260510134549 54 280 1.7 9.6 0.06 0.08 0.08 83 1025.6
20260510133059 55 167 1.7 7.0 0.07 0.07 0.07 83 1025.2
20260510131550 56 135 1.7 7.0 0.05 0.05 0.05 82 1025.0
20260510130043 57 186 0.9 3.5 0.04 0.04 0.04 81 1024.9
20260510124547 58 203 0.0 2.6 0.02 0.02 0.02 75 1024.6
20260510123057 60 0 0.0 7.0 0.00 0.00 0.00 68 1024.1
20260510121545 61 273 0.9 2.6 0.00 0.00 0.00 64 1023.3
20260510120043 61 203 0.9 3.5 0.00 0.00 0.00 64 1022.7
20260510114549 60 241 0.9 4.3 0.00 0.00 0.00 65 1021.9
20260510113052 60 274 0.9 3.5 0.00 0.00 0.00 65 1021.4
20260510111544 60 171 0.9 6.1 0.00 0.00 0.00 66 1021.0
20260510110044 60 144 1.7 6.1 0.00 0.00 0.00 68 1020.2
20260510104544 59 157 0.9 4.3 0.00 0.00 0.00 70 1020.2
20260510103044 59 5 0.9 3.5 0.00 0.00 0.00 71 1020.0
20260510101543 59 0 0.0 2.6 0.00 0.00 0.00 73 1019.7
20260510100040 58 0 0.9 3.5 0.00 0.00 0.00 73 1019.6
20260510094546 59 0 0.0 2.6 0.00 0.00 0.00 73 1019.6
20260510093044 58 285 2.6 7.0 0.00 0.00 0.00 73 1019.4
20260510091543 58 0 0.0 0.9 0.00 0.00 0.00 77 1019.1
20260510090058 58 0 0.0 1.7 0.00 0.00 0.00 74 1018.9
20260510084539 59 198 0.0 0.9 0.00 0.00 0.00 73 1018.6
20260510083039 59 0 0.0 0.9 0.00 0.00 0.00 70 1018.5
20260510081550 61 0 0.0 0.9 0.00 0.00 0.00 68 1018.3
20260510080045 61 198 0.0 1.7 0.00 0.00 0.00 66 1018.3
20260510074543 59 0 0.0 0.0 0.00 0.00 0.00 70 1018.2
20260510073102 60 0 0.0 0.9 0.00 0.00 0.00 69 1018.2
20260510071548 62 0 0.9 2.6 0.00 0.00 0.00 66 1018.1
20260510070043 63 156 0.0 4.3 0.00 0.00 0.00 64 1018.1
20260510064554 63 130 1.7 5.2 0.00 0.00 0.00 62 1017.8
20260510063047 62 0 0.0 1.7 0.00 0.00 0.00 66 1017.7
20260510061544 63 0 0.0 1.7 0.00 0.00 0.00 66 1017.5
20260510060043 65 0 0.0 1.7 0.00 0.00 0.00 62 1017.0
20260510054541 66 0 0.0 1.7 0.00 0.00 0.00 54 1016.7
20260510053047 69 263 0.9 2.6 0.00 0.00 0.00 48 1016.3
20260510051545 69 251 0.9 3.5 0.00 0.00 0.00 48 1016.3
20260510050044 69 0 0.9 2.6 0.00 0.00 0.00 49 1016.2
20260510044549 70 317 0.0 4.3 0.00 0.00 0.00 49 1016.3
20260510043044 70 288 0.9 2.6 0.00 0.00 0.00 48 1016.3
20260510041543 70 0 0.9 7.0 0.00 0.00 0.00 49 1017.0
20260510040054 71 325 0.9 4.3 0.00 0.00 0.00 50 1016.8
20260510034547 71 350 1.7 7.8 0.00 0.00 0.00 50 1016.7
20260510033046 71 343 1.7 5.2 0.00 0.00 0.00 50 1016.8
20260510031552 72 319 0.9 2.6 0.00 0.00 0.00 50 1017.2
20260510030049 73 337 0.9 3.5 0.00 0.00 0.00 44 1017.4
20260510024550 73 0 0.9 2.6 0.00 0.00 0.00 47 1017.5
20260510023046 74 321 1.7 7.8 0.00 0.00 0.00 43 1017.6
20260510021554 69 273 0.9 1.7 0.00 0.00 0.00 56 1017.4
20260510020044 71 0 0.0 1.7 0.00 0.00 0.00 50 1016.6
20260510014544 72 273 0.0 1.7 0.00 0.00 0.00 46 1015.5
20260510013042 73 273 0.9 2.6 0.00 0.00 0.00 45 1015.0
20260510011540 73 274 0.9 3.5 0.00 0.00 0.00 44 1014.4
20260510010045 74 277 0.9 3.5 0.00 0.00 0.00 42 1014.2
20260510004547 76 284 1.7 5.2 0.00 0.00 0.00 38 1013.7
20260510003048 78 286 1.7 5.2 0.00 0.00 0.00 37 1013.5
20260510001540 79 277 1.7 6.1 0.00 0.00 0.00 34 1013.5
20260510000042 80 291 2.6 6.1 0.00 0.00 0.00 32 1013.6
20260509234549 81 288 3.5 7.0 0.00 0.00 0.00 29 1013.5
20260509233052 82 0 2.6 9.6 0.00 0.00 0.00 30 1013.6
20260509231545 82 294 3.5 8.7 0.00 0.00 0.00 30 1013.5
20260509230044 83 291 2.6 9.6 0.00 0.00 0.00 30 1013.6
20260509224553 84 280 1.7 10.4 0.00 0.00 0.00 29 1013.3
20260509223047 84 284 3.5 8.7 0.00 0.00 0.00 26 1013.4
20260509221558 84 254 4.3 8.7 0.00 0.00 0.00 27 1013.3
20260509220051 85 284 3.5 9.6 0.00 0.00 0.00 26 1013.3
20260509214550 85 302 2.6 7.8 0.00 0.00 0.00 25 1013.4
20260509213045 85 360 1.7 9.6 0.00 0.00 0.00 28 1013.5
20260509211546 86 288 1.7 7.8 0.00 0.00 0.00 25 1013.7
20260509210044 85 268 2.6 8.7 0.00 0.00 0.00 28 1014.0
20260509204544 86 34 0.9 7.0 0.00 0.00 0.00 26 1014.2
20260509203041 86 244 3.5 7.8 0.00 0.00 0.00 25 1014.4
20260509201554 86 5 1.7 7.8 0.00 0.00 0.00 26 1014.5
20260509200057 85 342 0.0 4.3 0.00 0.00 0.00 27 1014.7
20260509194543 85 30 0.9 7.0 0.00 0.00 0.00 29 1014.9
20260509193044 85 260 0.9 4.3 0.00 0.00 0.00 26 1015.0
20260509191540 85 328 0.9 3.5 0.00 0.00 0.00 25 1015.3
20260509190053 84 345 1.7 5.2 0.00 0.00 0.00 25 1015.3
20260509184542 84 308 1.7 4.3 0.00 0.00 0.00 30 1015.4
20260509183050 83 0 0.9 4.3 0.00 0.00 0.00 28 1015.5
20260509181551 83 19 0.9 3.5 0.00 0.00 0.00 28 1015.7
20260509180058 81 313 0.9 3.5 0.00 0.00 0.00 27 1016.0
20260509174546 83 17 1.7 4.3 0.00 0.00 0.00 31 1016.1
20260509173047 82 360 1.7 4.3 0.00 0.00 0.00 29 1016.2
20260509171547 82 352 0.9 6.1 0.00 0.00 0.00 31 1016.2
20260509170043 82 28 1.7 4.3 0.00 0.00 0.00 27 1016.3